[[[{"header":{"parameterUnit":"kt","parameterCategory":2,"dx":1,"dy":1,"la1":30.253999710083008,"la2":30.299108505249023,"lo1":-89.0895004272461,"lo2":-89.04439544677734,"nx":28,"ny":28,"refTime":"2022-10-01T21:00:00:Z","depth":0,"parameterNumber":1,"parameterNumberName":"U-component_of_WINDS"},"data":[-5.2562,-5.2687,-5.2688,-5.2831,-5.2856,-5.2954,-5.2989,-5.3035,-5.3071,-5.3187,-5.3254,-5.3267,-5.3303,-5.3382,-5.3455,-5.3458,-5.349,-5.3534,-5.3532,-5.3334,-5.3307,-5.3281,-5.3252,-5.354,-5.3541,-5.3738,-5.374,-5.3741,-5.2418,-5.2445,-5.252,-5.2594,-5.2659,-5.2617,-5.2672,-5.2729,-5.2818,-5.2863,-5.2928,-5.303,-5.311,-5.3131,-5.3209,-5.3267,-5.3252,-5.3288,-5.3286,-5.3292,-5.308,-5.305,-5.3299,-5.3299,-5.3299,-5.3299,-5.3299,-5.3299,-5.2158,-5.2233,-5.2278,-5.236,-5.2397,-5.2446,-5.2517,-5.2531,-5.2604,-5.2686,-5.2671,-5.277,-5.2815,-5.2908,-5.2938,-5.3016,-5.2976,-5.3016,-5.3026,-5.3037,-5.3051,-5.2771,-5.3028,-5.3028,-5.3027,-5.3026,-5.3026,0,-5.1968,-5.1964,-5.2036,-5.2109,-5.2168,-5.2224,-5.2276,-5.2319,-5.2309,-5.237,-5.2458,-5.2509,-5.2609,-5.2692,-5.2763,-5.2787,-5.2751,-5.2746,-5.2774,-5.2785,-5.2786,-5.279,-5.2447,-5.2739,-5.2737,-5.2735,-5.2734,-5.2733,-5.1709,-5.1794,-5.1841,-5.1892,-5.192,-5.2001,-5.2049,-5.2034,-5.2086,-5.2146,-5.2212,-5.2294,-5.236,-5.25,-5.2515,-5.2589,-5.2573,-5.2685,-5.2584,-5.2591,-5.2579,-5.2575,-5.2585,-5.2706,-5.271,-5.2712,-5.2715,0,-5.1563,-5.1563,-5.1696,-5.1733,-5.1745,-5.1835,-5.1867,-5.194,-5.1945,-5.2046,-5.2069,-5.2077,-5.2163,-5.216,-5.2257,-5.2253,-5.2404,-5.2384,-5.2389,-5.2386,-5.2488,-5.248,-5.2815,-5.2859,-5.2557,-5.256,-5.2563,0,-5.1343,-5.1455,-5.1449,-5.1526,-5.1651,-5.1632,-5.1756,-5.1772,-5.181,-5.1889,-5.1846,-5.1922,-5.1905,-5.198,-5.1973,-5.2095,-5.2113,-5.2118,-5.2115,-5.2124,-5.2124,-5.2153,-5.2141,-5.2102,-5.2101,-5.2099,-5.2098,0,-5.1117,-5.1244,-5.1369,-5.1398,-5.1448,-5.1507,-5.1531,-5.1572,-5.162,-5.168,-5.1711,-5.1782,-5.1822,-5.1878,-5.187,-5.1802,-5.2018,-5.1922,-5.2023,-5.2024,-5.2074,-5.2071,-5.2366,-5.2096,-5.2095,-5.2095,-5.2094,0,-5.094,-5.1002,-5.1181,-5.1223,-5.1257,-5.1338,-5.1408,-5.1476,-5.1523,-5.1524,-5.1571,-5.1543,-5.1647,-5.1553,-5.1697,-5.1611,-5.1653,-5.1666,-5.1673,-5.1685,-5.1581,-5.1752,-5.2031,-5.2061,-5.1693,-5.1689,-5.1686,0,-5.0683,-5.0864,-5.0849,-5.1019,-5.1102,-5.1049,-5.1139,-5.1181,-5.1191,-5.1262,-5.1271,-5.1353,-5.1282,-5.1307,-5.1378,-5.1392,-5.1503,-5.1376,-5.1482,-5.1486,-5.1475,-5.173,-5.1775,-5.1969,-5.1643,-5.1648,-5.1651,0,-5.0485,-5.0545,-5.0576,-5.0609,-5.0661,-5.073,-5.0832,-5.0909,-5.0958,-5.1009,-5.1096,-5.1208,-5.116,-5.1202,-5.1186,-5.126,-5.1427,-5.1199,-5.1199,-5.1243,-5.162,-5.1662,-5.1695,-5.14,-5.1405,-5.1409,-5.1617,0,-5.0223,-5.0312,-5.0396,-5.0468,-5.052,-5.0625,-5.0622,-5.0676,-5.0656,-5.0663,-5.0789,-5.0822,-5.09,-5.0934,-5.0914,-5.1085,-5.1057,-5.1004,-5.0915,-5.1081,-5.115,-5.1177,-5.0813,-5.081,-5.0808,-5.0806,0,0,-4.9979,-5.0107,-5.0086,-5.0185,-5.0228,-5.0172,-5.0285,-5.032,-5.0392,-5.0423,-5.0372,-5.0537,-5.0566,-5.0719,-5.0771,-5.0801,-5.0832,-5.0774,-5.1001,-5.1023,-5.1043,-5.1117,-5.1145,-5.0802,-5.0801,-5.08,-5.08,0,-4.9883,-4.9913,-5.0025,-5.006,-5.0112,-5.0113,-5.014,-5.0181,-5.0191,-5.0313,-5.0265,-5.0339,-5.047,-5.0509,-5.0545,-5.0754,-5.0715,-5.0777,-5.0893,-5.0978,-5.1003,-5.1025,-5.1102,-5.113,-5.0794,-5.0795,-5.0795,0,-4.9689,-4.9719,-4.9772,-4.9866,-4.9899,-4.9984,-4.9889,-4.9983,-5.0047,-4.998,-5.0102,-5.012,-5.0169,-5.0314,-5.0378,-5.0334,-5.0609,-5.052,-5.0534,-5.0542,-5.0625,-5.0655,-5.0681,-5.0333,-5.0331,-5.033,0,0,-4.9607,-4.9689,-4.9716,-4.9845,-4.9869,-4.9873,-4.9917,-4.9902,-4.9947,-4.9966,-4.9988,-5.0034,-5.011,-5.0161,-5.0232,-5.039,-5.04,-5.0464,-5.0485,-5.0503,-5.0521,-5.0608,-5.0638,-5.0324,-5.0324,-5.0323,0,0,-4.9568,-4.9605,-4.9576,-4.9724,-4.977,-4.9805,-4.9884,-4.9849,-4.9913,-4.99,-4.9878,-4.9889,-5.0024,-5.0043,-4.9963,-5.02,-5.0111,-5.013,-5.0183,-5.0211,-5.0232,-5.0226,-4.9871,0,0,0,0,0,-4.9468,-4.96,-4.9573,-4.9598,-4.9715,-4.9819,-4.9834,-4.9819,-4.9757,-4.982,-4.9833,-4.9787,-4.9996,-4.9925,-4.9949,-5.0039,-5.0247,-5.026,-5.0273,-5.0379,-5.0408,-5.0432,0,0,0,0,0,0,-4.9478,-4.9508,-4.957,-4.9611,-4.9637,-4.9814,-4.9706,-4.9705,-4.975,-4.9739,-4.9786,-4.9788,-4.9777,-4.9911,-4.9933,-5.0019,-4.9864,-5.0252,-5.0264,-5.0274,-5.0389,-5.0412,-5.0432,0,0,0,0,0,-4.9485,-4.9509,-4.9701,-4.9609,-4.9632,-4.9643,-4.9701,-4.97,-4.9734,-4.9754,-4.9755,-4.9718,-4.978,-4.9798,-4.9924,-5.0009,-4.9848,-4.9857,-5.026,-5.0269,-5.0277,-5.04,0,0,0,0,0,0,-4.9491,-4.9509,-4.9705,-4.9712,-4.9558,-4.9633,-4.9644,-4.9695,-4.9745,-4.9747,-4.9685,-4.9676,-4.9784,-4.9796,-4.981,-5.0007,-4.9836,-4.9844,-4.9849,-5.0267,-5.0274,-5.028,0,0,0,0,0,0,-4.9496,-4.9515,-4.9709,-4.9645,-4.9644,-4.9623,-4.9633,-4.9738,-4.9746,-4.9673,-4.9667,-4.968,-4.9763,-4.9797,-4.9807,-4.9971,-4.9826,-4.9834,-4.984,-4.9843,-5.0272,-5.0278,0,0,0,0,0,0,-4.9503,-4.9519,-4.9643,-4.9643,-4.9642,-4.9712,-4.9715,-4.9837,-4.9692,-4.9671,-4.9679,-4.9673,-4.9764,-4.9774,-4.9805,-4.9965,-4.997,-4.9826,-4.9832,-4.9836,-4.9838,0,0,0,0,0,0,0,-4.951,-4.9405,-4.9668,-4.9641,-4.9639,-4.9771,-4.9772,-4.9774,-4.9691,-4.9685,-4.968,-4.9675,-4.9779,-4.9788,-4.9797,-4.996,0,0,-4.9825,-4.9829,0,0,0,0,0,0,0,0,-4.9398,-4.9403,-4.9668,-4.9669,-4.9671,-4.9771,-4.9772,-4.9774,-4.969,-4.9686,-4.9681,-4.9677,-4.9782,-4.9789,-4.9796,0,0,0,0,0,0,0,0,0,0,0,0,0,0,0,-4.9668,-4.9669,0,-4.9771,-4.9772,-4.9774,-4.9689,-4.9686,-4.9682,-4.9679,-4.9784,-4.979,-4.9796,0,0,0,0,0,0,0,0,0,0,0,0,0,0,0,0,0,0,0,0,0,0,0,0,0,0,0,0,0,0,0,0,0,0,0,0,0,0,0,0,0,0,0,0,0,0,0,0,0,0,0,0,0,0,0,0,0,0,0,0,0,0,0,0,0,0,0,0,0]}],[{"header":{"parameterUnit":"kt","parameterCategory":2,"dx":1,"dy":1,"la1":30.253999710083008,"la2":30.299108505249023,"lo1":-89.0895004272461,"lo2":-89.04439544677734,"nx":28,"ny":28,"refTime":"2022-10-01T21:00:00:Z","depth":0,"parameterNumber":2,"parameterNumberName":"V-component_of_WINDS"},"data":[-7.9938,-8.0006,-7.9992,-8.0063,-8.0062,-8.0108,-8.0119,-8.0133,-8.0139,-8.0191,-8.0218,-8.021,-8.021,-8.0238,-8.0266,-8.0261,-8.0274,-8.0309,-8.0297,-8.0156,-8.0136,-8.0116,-8.01,-8.0312,-8.0312,-8.0445,-8.0447,-8.0448,-7.9836,-7.9836,-7.987,-7.9893,-7.9921,-7.9879,-7.9893,-7.992,-7.9961,-7.997,-7.9996,-8.0039,-8.0072,-8.006,-8.0088,-8.0118,-8.01,-8.0127,-8.0125,-8.0125,-7.9974,-7.9957,-8.0142,-8.0142,-8.0142,-8.0142,-8.0141,-8.0141,-7.9647,-7.9688,-7.9694,-7.973,-7.9737,-7.9752,-7.9789,-7.9778,-7.981,-7.9838,-7.9814,-7.986,-7.9865,-7.9892,-7.9897,-7.9931,-7.9898,-7.9923,-7.9929,-7.9936,-7.9946,-7.9757,-7.9935,-7.9935,-7.9934,-7.9934,-7.9933,0,-7.9504,-7.9489,-7.952,-7.9548,-7.9573,-7.9592,-7.9607,-7.9629,-7.9591,-7.9619,-7.9657,-7.9677,-7.9715,-7.9749,-7.9771,-7.9771,-7.9729,-7.9723,-7.974,-7.9753,-7.9762,-7.9759,-7.9513,-7.9718,-7.9716,-7.9715,-7.9714,-7.9713,-7.9312,-7.9362,-7.9361,-7.9384,-7.9389,-7.9428,-7.9447,-7.941,-7.9433,-7.9445,-7.9482,-7.9516,-7.9541,-7.9604,-7.9589,-7.9617,-7.9597,-7.9677,-7.9601,-7.9611,-7.9599,-7.9596,-7.9601,-7.9693,-7.9695,-7.9698,-7.9699,0,-7.9206,-7.9182,-7.9254,-7.9247,-7.9247,-7.9301,-7.9294,-7.9333,-7.9318,-7.9369,-7.9379,-7.9355,-7.9393,-7.9365,-7.9402,-7.9386,-7.9473,-7.9452,-7.9471,-7.9465,-7.9534,-7.9529,-7.9763,-7.9791,-7.9571,-7.9573,-7.9575,0,-7.9033,-7.91,-7.906,-7.9103,-7.9176,-7.9137,-7.9209,-7.9203,-7.9207,-7.9247,-7.9195,-7.9234,-7.9192,-7.9226,-7.9203,-7.9268,-7.9275,-7.9267,-7.926,-7.9272,-7.9273,-7.9283,-7.9273,-7.9242,-7.9241,-7.924,-7.9239,0,-7.8869,-7.8926,-7.8996,-7.9005,-7.9004,-7.9037,-7.9038,-7.9041,-7.9061,-7.9081,-7.9093,-7.9119,-7.9134,-7.9155,-7.9125,-7.9074,-7.9204,-7.9128,-7.9196,-7.9197,-7.9226,-7.9225,-7.9439,-7.9237,-7.9237,-7.9236,-7.9236,0,-7.8726,-7.8749,-7.8854,-7.8851,-7.8868,-7.8913,-7.8937,-7.897,-7.8977,-7.8965,-7.8981,-7.8943,-7.8998,-7.8925,-7.9,-7.8942,-7.8959,-7.8956,-7.8961,-7.8964,-7.8883,-7.9008,-7.9215,-7.9235,-7.8967,-7.8965,-7.8963,0,-7.8545,-7.8645,-7.8612,-7.8712,-7.8754,-7.8694,-7.8743,-7.8752,-7.874,-7.8773,-7.8759,-7.8797,-7.8737,-7.8744,-7.8785,-7.8773,-7.8847,-7.8762,-7.8809,-7.8811,-7.881,-7.8999,-7.9037,-7.9172,-7.8934,-7.8937,-7.8939,0,-7.8402,-7.8401,-7.8421,-7.8429,-7.8434,-7.8469,-7.8526,-7.8555,-7.8579,-7.8593,-7.864,-7.8692,-7.8649,-7.8662,-7.8633,-7.8678,-7.8796,-7.8625,-7.8624,-7.8657,-7.8916,-7.8952,-7.8975,-7.8767,-7.877,-7.8773,-7.8916,0,-7.8192,-7.8238,-7.8292,-7.8312,-7.8334,-7.8395,-7.8366,-7.8393,-7.8363,-7.835,-7.8417,-7.8416,-7.8445,-7.8463,-7.8434,-7.8544,-7.8521,-7.8474,-7.8401,-7.8525,-7.8572,-7.8591,-7.8334,-7.8332,-7.833,-7.8328,0,0,-7.8025,-7.8091,-7.8053,-7.8108,-7.8124,-7.806,-7.8128,-7.8136,-7.8154,-7.8167,-7.8126,-7.8199,-7.82,-7.8285,-7.8321,-7.8333,-7.835,-7.8307,-7.8466,-7.8482,-7.8496,-7.8546,-7.8566,-7.8325,-7.8324,-7.8324,-7.8323,0,-7.7942,-7.7946,-7.8014,-7.8021,-7.803,-7.8012,-7.8028,-7.8025,-7.802,-7.8086,-7.8031,-7.8068,-7.8128,-7.8136,-7.8147,-7.8296,-7.8253,-7.8307,-7.8397,-7.8448,-7.8466,-7.8482,-7.8535,-7.8554,-7.8318,-7.8318,-7.8319,0,-7.7796,-7.7795,-7.7825,-7.7859,-7.7864,-7.7908,-7.7825,-7.7875,-7.7907,-7.7833,-7.79,-7.7895,-7.7903,-7.7987,-7.8024,-7.7987,-7.8166,-7.8104,-7.8116,-7.8119,-7.8166,-7.8188,-7.8208,-7.7951,-7.795,-7.7949,0,0,-7.7729,-7.7772,-7.7758,-7.7839,-7.7846,-7.782,-7.7841,-7.7814,-7.7822,-7.7826,-7.7819,-7.7829,-7.7863,-7.7886,-7.7916,-7.8013,-7.8011,-7.806,-7.8078,-7.8092,-7.8103,-7.8154,-7.8176,-7.7945,-7.7945,-7.7945,0,0,-7.7696,-7.7684,-7.7653,-7.7743,-7.7754,-7.7745,-7.7796,-7.7757,-7.7782,-7.7771,-7.7727,-7.7727,-7.7805,-7.7803,-7.7748,-7.7889,-7.7818,-7.783,-7.7889,-7.791,-7.7927,-7.7926,-7.7661,0,0,0,0,0,-7.7596,-7.7685,-7.7658,-7.7668,-7.7711,-7.7761,-7.7766,-7.7732,-7.7682,-7.7723,-7.771,-7.7662,-7.7764,-7.7715,-7.7726,-7.7787,-7.7889,-7.7899,-7.7908,-7.8006,-7.8029,-7.8048,0,0,0,0,0,0,-7.76,-7.7614,-7.7655,-7.7651,-7.766,-7.7758,-7.7665,-7.7658,-7.7677,-7.7667,-7.7666,-7.7662,-7.7633,-7.7707,-7.7717,-7.7776,-7.7658,-7.7893,-7.7901,-7.7909,-7.8014,-7.8033,-7.8049,0,0,0,0,0,-7.7603,-7.7614,-7.7692,-7.7649,-7.7657,-7.7633,-7.7662,-7.7655,-7.7669,-7.765,-7.7644,-7.7641,-7.7636,-7.7642,-7.7713,-7.7772,-7.765,-7.7654,-7.7898,-7.7905,-7.7911,-7.8023,0,0,0,0,0,0,-7.7605,-7.7608,-7.7693,-7.7694,-7.7613,-7.7627,-7.7628,-7.7653,-7.765,-7.7645,-7.7622,-7.7615,-7.7639,-7.7643,-7.7648,-7.7773,-7.7644,-7.7649,-7.7651,-7.7903,-7.7909,-7.7913,0,0,0,0,0,0,-7.7602,-7.7609,-7.7693,-7.765,-7.7645,-7.7621,-7.7622,-7.7677,-7.765,-7.7622,-7.7615,-7.7619,-7.7631,-7.7645,-7.7648,-7.7735,-7.764,-7.7644,-7.7646,-7.7648,-7.7908,-7.7912,0,0,0,0,0,0,-7.7604,-7.7611,-7.7649,-7.7646,-7.7642,-7.7652,-7.7669,-7.7714,-7.7614,-7.7623,-7.7604,-7.76,-7.7634,-7.7636,-7.7648,-7.7734,-7.7734,-7.764,-7.7643,-7.7644,-7.7646,0,0,0,0,0,0,0,-7.7606,-7.7572,-7.7686,-7.7643,-7.7639,-7.7704,-7.7705,-7.7705,-7.7613,-7.7609,-7.7605,-7.7602,-7.7618,-7.7622,-7.7626,-7.7733,0,0,-7.764,-7.7641,0,0,0,0,0,0,0,0,-7.7568,-7.7571,-7.7686,-7.7687,-7.7687,-7.7704,-7.7705,-7.7705,-7.7613,-7.7609,-7.7606,-7.7603,-7.7619,-7.7622,-7.7626,0,0,0,0,0,0,0,0,0,0,0,0,0,0,0,-7.7686,-7.7687,0,-7.7704,-7.7705,-7.7705,-7.7612,-7.7609,-7.7607,-7.7604,-7.762,-7.7623,-7.7626,0,0,0,0,0,0,0,0,0,0,0,0,0,0,0,0,0,0,0,0,0,0,0,0,0,0,0,0,0,0,0,0,0,0,0,0,0,0,0,0,0,0,0,0,0,0,0,0,0,0,0,0,0,0,0,0,0,0,0,0,0,0,0,0,0,0,0,0,0]}]]]